Wind_Gust
0 0 0 0 0 0 0 0 0 0 0 0 0 0 0 0 0 0 0 0 0 0 0 0 0 0 0 0 0 0 0 0 0 0 0 0 0 0 0 0 0 0 0 0 0 0 0 0 0 0 0 0 0 0 0 0 0 0 0 0 0 0 0 0 0 0 0 0 0 0 0 0 0 0 0 0 0 0 0 0 0 0 0 0 0
0 0 0 0 0 0 0 0 0 0 0 0 0 0 0 0 0 0 0 0 0 0 0 0 0 0 0 0 0 0 0 0 0 0 0 0 0 0 0 0 0 0 0 0 0 0 0 0 0 0 0 0 0 0 0 0 0 0 0 0 0 0 0 0 0 0 0 0 0 0 0 0 0 0 0 0 0 0 0 0 0 0 0 0 0
0 0 0 0 0 0 0 0 0 0 0 0 0 0 0 0 0 0 0 0 0 0 0 0 0 0 0 0 0 0 0 0 0 0 0 0 0 0 0 0 0 0 0 0 0 0 0 0 0 0 0 0 0 0 0 0 0 0 0 0 0 0 0 0 0 0 0 0 0 0 0 0 0 0 0 0 0 0 0 0 0 0 0 0 0
0 0 0 0 0 0 0 0 0 0 0 0 0 0 0 0 0 0 0 0 0 0 0 0 0 0 0 0 0 0 0 0 0 0 0 0 0 0 0 0 0 0 0 0 0 0 0 0 0 0 0 0 0 0 0 0 0 0 0 0 0 0 0 0 0 0 0 0 0 0 0 0 0 0 0 0 0 0 0 0 0 0 0 0 0
0 0 0 0 0 0 0 0 0 0 0 0 0 0 0 0 0 0 0 0 0 0 0 0 0 0 0 0 0 0 0 0 0 0 0 0 0 0 0 0 0 0 0 0 0 0 0 0 0 0 0 0 0 0 0 0 0 0 0 0 0 0 0 0 0 0 0 0 0 0 0 0 0 0 0 0 0 0 0 0 0 0 0 0 0
0 0 0 0 0 0 0 0 0 0 0 0 0 0 0 0 0 0 0 0 0 0 0 0 0 0 0 0 0 0 0 0 0 0 0 0 0 0 0 0 0 0 0 0 0 0 0 0 0 0 0 0 0 0 0 0 0 0 0 0 0 0 0 0 0 0 0 0 0 0 0 0 0 0 0 0 0 0 0 0 0 0 0 0 0
0 0 0 0 0 0 0 0 0 0 0 0 0 0 0 0 0 0 0 0 0 0 0 0 0 0 0 0 0 0 0 0 0 0 0 0 0 0 0 0 0 0 0 0 0 0 0 0 0 0 0 0 0 0 0 0 0 0 0 0 0 0 0 0 0 0 0 0 0 0 0 0 0 0 0 0 0 0 0 0 0 0 0 0 0
0 0 0 0 0 0 0 0 0 0 0 0 0 0 0 0 0 0 0 0 0 0 0 0 0 0 0 0 0 0 0 0 0 0 0 0 0 0 0 0 0 0 0 0 0 0 0 0 0 0 0 0 0 0 0 0 0 0 0 0 0 0 0 0 0 0 0 0 0 0 0 0 0 0 0 0 0 0 0 0 0 0 0 0 0
0 0 0 0 0 0 0 0 0 0 0 0 0 0 0 0 0 0 0 0 0 0 0 0 0 0 0 0 0 0 0 0 0 0 0 0 0 0 0 0 0 0 0 0 0 0 0 0 0 0 0 0 0 0 0 0 0 0 0 0 0 0 0 0 0 0 0 0 0 0 0 0 0 0 0 0 0 0 0 0 0 0 0 0 0
0 0 0 0 0 0 0 0 0 0 0 0 0 0 0 0 0 0 0 0 0 0 0 0 0 0 0 0 0 0 0 0 0 0 0 0 0 0 0 0 0 0 0 0 0 0 0 0 0 0 0 0 0 0 0 0 0 0 0 0 0 0 0 0 0 0 0 0 0 0 0 0 0 0 0 0 0 0 0 0 0 0 0 0 0
0 0 0 0 0 0 0 0 0 0 0 0 0 0 0 0 0 0 0 0 0 0 0 0 0 0 0 0 0 0 0 0 0 0 0 0 0 0 0 0 0 0 0 0 0 0 0 0 0 0 0 0 0 0 0 0 0 0 0 0 0 0 0 0 0 0 0 0 0 0 0 0 0 0 0 0 0 0 0 0 0 0 0 0 0
0 0 0 0 0 0 0 0 0 0 0 0 0 0 0 0 0 0 0 0 0 0 0 0 0 0 0 0 0 0 0 0 0 0 0 0 0 0 0 0 0 0 0 0 0 0 0 0 0 0 0 0 0 0 0 0 0 0 0 0 0 0 0 0 0 0 0 0 0 0 0 0 0 0 0 0 0 0 0 0 0 0 0 0 0
0 0 0 0 0 0 0 0 0 0 0 0 0 0 0 0 0 0 0 0 0 0 0 0 0 0 0 0 0 0 0 0 0 0 0 0 0 0 0 0 0 0 0 0 0 0 0 0 0 0 0 0 0 0 0 0 0 0 0 0 0 0 0 0 0 0 0 0 0 0 0 0 0 0 0 0 0 0 0 0 0 0 0 0 0
0 0 0 0 0 0 0 0 0 0 0 0 0 0 0 0 0 0 0 0 0 0 0 0 0 0 0 0 0 0 0 0 0 0 0 0 0 0 0 0 0 0 0 0 0 0 0 0 0 0 0 0 0 0 0 0 0 0 0 0 0 0 0 0 0 0 0 0 0 0 0 0 0 0 0 0 0 0 0 0 0 0 0 0 0
0 0 0 0 0 0 0 0 0 0 0 0 0 0 0 0 0 0 0 0 0 0 0 0 0 0 0 0 0 0 0 0 0 0 0 0 0 0 0 0 0 0 0 0 0 0 0 0 0 0 0 0 0 0 0 0 0 0 0 0 0 0 0 0 0 0 0 0 0 0 0 0 0 0 0 0 0 0 0 0 0 0 0 0 0
0 0 0 0 0 0 0 0 0 0 0 0 0 0 0 0 0 0 0 0 0 0 0 0 0 0 0 0 0 0 0 0 0 0 0 0 0 0 0 0 0 0 0 0 0 0 0 0 0 0 0 0 0 0 0 0 0 0 0 0 0 0 0 0 0 0 0 0 0 0 0 0 0 0 0 0 0 0 0 0 0 0 0 0 0
0 0 0 0 0 0 0 0 0 0 0 0 0 0 0 0 0 0 0 0 0 0 0 0 0 0 0 0 0 0 0 0 0 0 0 0 0 0 0 0 0 0 0 0 0 0 0 0 0 0 0 0 0 0 0 0 0 0 0 0 0 0 0 0 0 0 0 0 0 0 0 0 0 0 0 0 0 0 0 0 0 0 0 0 0
0 0 0 0 0 0 0 0 0 0 0 0 0 0 0 0 0 0 0 0 0 0 0 0 0 0 0 0 0 0 0 0 0 0 0 0 0 0 0 0 0 0 0 0 0 0 0 0 0 0 0 0 0 0 0 0 0 0 0 0 0 0 0 0 0 0 0 0 0 0 0 0 0 0 0 0 0 0 0 0 0 0 0 0 0
0 0 0 0 0 0 0 0 0 0 0 0 0 0 0 0 0 0 0 0 0 0 0 0 0 0 0 0 0 0 0 0 0 0 0 0 0 0 0 0 0 0 0 0 0 0 0 0 0 0 0 0 0 0 0 0 0 0 0 0 0 0 0 0 0 0 0 0 0 0 0 0 0 0 0 0 0 0 0 0 0 0 0 0 0
0 0 0 0 0 0 0 0 0 0 0 0 0 0 0 0 0 0 0 0 0 0 0 0 0 0 0 0 0 0 0 0 0 0 0 0 0 0 0 0 0 0 0 0 0 0 0 0 0 0 0 0 0 0 0 0 0 0 0 0 0 0 0 0 0 0 0 0 0 0 0 0 0 0 0 0 0 0 0 0 0 0 0 0 0
0 0 0 0 0 0 0 0 0 0 0 0 0 0 0 0 0 0 0 0 0 0 0 0 0 0 0 0 0 0 0 0 0 0 0 0 0 0 0 0 0 0 0 0 0 0 0 0 0 0 0 0 0 0 0 0 0 0 0 0 0 0 0 0 0 0 0 0 0 0 0 0 0 0 0 0 0 0 0 0 0 0 0 0 0
0 0 0 0 0 0 0 0 0 0 0 0 0 0 0 0 0 0 0 0 0 0 0 0 0 0 0 0 0 0 0 0 0 0 0 0 0 0 0 0 0 0 0 0 0 0 0 0 0 0 0 0 0 0 0 0 0 0 0 0 0 0 0 0 0 0 0 0 0 0 0 0 0 0 0 0 0 0 0 0 0 0 0 0 0
0 0 0 0 0 0 0 0 0 0 0 0 0 0 0 0 0 0 0 0 0 0 0 0 0 0 0 0 0 0 0 0 0 0 0 0 0 0 0 0 0 0 0 0 0 0 0 0 0 0 0 0 0 0 0 0 0 0 0 0 0 0 0 0 0 0 0 0 0 0 0 0 0 0 0 0 0 0 0 0 0 0 0 0 0
0 0 0 0 0 0 0 0 0 0 0 0 0 0 0 0 0 0 0 0 0 0 0 0 0 0 0 0 0 0 0 0 0 0 0 0 0 0 0 0 0 0 0 0 0 0 0 0 0 0 0 0 0 0 0 0 0 0 0 0 0 0 0 0 0 0 0 0 0 0 0 0 0 0 0 0 0 0 0 0 0 0 0 0 0
0 0 0 0 0 0 0 0 0 0 0 0 0 0 0 0 0 0 0 0 0 0 0 0 0 0 0 0 0 0 0 0 0 0 0 0 0 0 0 0 0 0 0 0 0 0 0 0 0 0 0 0 0 0 0 0 0 0 0 0 0 0 0 0 0 0 0 0 0 0 0 0 0 0 0 0 0 0 0 0 0 0 0 0 0
0 0 0 0 0 0 0 0 0 0 0 0 0 0 0 0 0 0 0 0 0 0 0 0 0 0 0 0 0 0 0 0 0 0 0 0 0 0 0 0 0 0 0 0 0 0 0 0 0 0 0 0 0 0 0 0 0 0 0 0 0 0 0 0 0 0 0 0 0 0 0 0 0 0 0 0 0 0 0 0 0 0 0 0 0
0 0 0 0 0 0 0 0 0 0 0 0 0 0 0 0 0 0 0 0 0 0 0 0 0 0 0 0 0 0 0 0 0 0 0 0 0 0 0 0 0 0 0 0 0 0 0 0 0 0 0 0 0 0 0 0 0 0 0 0 0 0 0 0 0 0 0 0 0 0 0 0 0 0 0 0 0 0 0 0 0 0 0 0 0
0 0 0 0 0 0 0 0 0 0 0 0 0 0 0 0 0 0 0 0 0 0 0 0 0 0 0 0 0 0 0 0 0 0 0 0 0 0 0 0 0 0 0 0 0 0 0 0 0 0 0 0 0 0 0 0 0 0 0 0 0 0 0 0 0 0 0 0 0 0 0 0 0 0 0 0 0 0 0 0 0 0 0 0 0
0 0 0 0 0 0 0 0 0 0 0 0 0 0 0 0 0 0 0 0 0 0 0 0 0 0 0 0 0 0 0 0 0 0 0 0 0 0 0 0 0 0 0 0 0 0 0 0 0 0 0 0 0 0 0 0 0 0 0 0 0 0 0 0 0 0 0 0 0 0 0 0 0 0 0 0 0 0 0 0 0 0 0 0 0
0 0 0 0 0 0 0 0 0 0 0 0 0 0 0 0 0 0 0 0 0 0 0 0 0 0 0 0 0 0 0 0 0 0 0 0 0 0 0 0 0 0 0 0 0 0 0 0 0 0 0 0 0 0 0 0 0 0 0 0 0 0 0 0 0 0 0 0 0 0 0 0 0 0 0 0 0 0 0 0 0 0 0 0 0
0 0 0 0 0 0 0 0 0 0 0 0 0 0 0 0 0 0 0 0 0 0 0 0 0 0 0 0 0 0 0 0 0 0 0 0 0 0 0 0 0 0 0 0 0 0 0 0 0 0 0 0 0 0 0 0 0 0 0 0 0 0 0 0 0 0 0 0 0 0 0 0 0 0 0 0 0 0 0 0 0 0 0 0 0
0 0 0 0 0 0 0 0 0 0 0 0 0 0 0 0 0 0 0 0 0 0 0 0 0 0 0 0 0 0 0 0 0 0 0 0 0 0 0 0 0 0 0 0 0 0 0 0 0 0 0 0 0 0 0 0 0 0 0 0 0 0 0 0 0 0 0 0 0 0 0 0 0 0 0 0 0 0 0 0 0 0 0 0 0
0 0 0 0 0 0 0 0 0 0 0 0 0 0 0 0 0 0 0 0 0 0 0 0 0 0 0 0 0 0 0 0 0 0 0 0 0 0 0 0 0 0 0 0 0 0 0 0 0 0 0 0 0 0 0 0 0 0 0 0 0 0 0 0 0 0 0 0 0 0 0 0 0 0 0 0 0 0 0 0 0 0 0 0 0
0 0 0 0 0 0 0 0 0 0 0 0 0 0 0 0 0 0 0 0 0 0 0 0 0 0 0 0 0 0 0 0 0 0 0 0 0 0 0 0 0 0 0 0 0 0 0 0 0 0 0 0 0 0 0 0 0 0 0 0 0 0 0 0 0 0 0 0 0 0 0 0 0 0 0 0 0 0 0 0 0 0 0 0 0
0 0 0 0 0 0 0 0 0 0 0 0 0 0 0 0 0 0 0 0 0 0 0 0 0 0 0 0 0 0 0 0 0 0 0 0 0 0 0 0 0 0 0 0 0 0 0 0 0 0 0 0 0 0 0 0 0 0 0 0 0 0 0 0 0 0 0 0 0 0 0 0 0 0 0 0 0 0 0 0 0 0 0 0 0
0 0 0 0 0 0 0 0 0 0 0 0 0 0 0 0 0 0 0 0 0 0 0 0 0 0 0 0 0 0 0 0 0 0 0 0 0 0 0 0 0 0 0 0 0 0 0 0 0 0 0 0 0 0 0 0 0 0 0 0 0 0 0 0 0 0 0 0 0 0 0 0 0 0 0 0 0 0 0 0 0 0 0 0 0
0 0 0 0 0 0 0 0 0 0 0 0 0 0 0 0 0 0 0 0 0 0 0 0 0 0 0 0 0 0 0 0 0 0 0 0 0 0 0 0 0 0 0 0 0 0 0 0 0 0 0 0 0 0 0 0 0 0 0 0 0 0 0 0 0 0 0 0 0 0 0 0 0 0 0 0 0 0 0 0 0 0 0 0 0
0 0 0 0 0 0 0 0 0 0 0 0 0 0 0 0 0 0 0 0 0 0 0 0 0 0 0 0 0 0 0 0 0 0 0 0 0 0 0 0 0 0 0 0 0 0 0 0 0 0 0 0 0 0 0 0 0 0 0 0 0 0 0 0 0 0 0 0 0 0 0 0 0 0 0 0 0 0 0 0 0 0 0 0 0
0 0 0 0 0 0 0 0 0 0 0 0 0 0 0 0 0 0 0 0 0 0 0 0 0 0 0 0 0 0 0 0 0 0 0 0 0 0 0 0 0 0 0 0 0 0 0 0 0 0 0 0 0 0 0 0 0 0 0 0 0 0 0 0 0 0 0 0 0 0 0 0 0 0 0 0 0 0 0 0 0 0 0 0 0
0 0 0 0 0 0 0 0 0 0 0 0 0 0 0 0 0 0 0 0 0 0 0 0 0 0 0 0 0 0 0 0 0 0 0 0 0 0 0 0 0 0 0 0 0 0 0 0 0 0 0 0 0 0 0 0 0 0 0 0 0 0 0 0 0 0 0 0 0 0 0 0 0 0 0 0 0 0 0 0 0 0 0 0 0
0 0 0 0 0 0 0 0 0 0 0 0 0 0 0 0 0 0 0 0 0 0 0 0 0 0 0 0 0 0 0 0 0 0 0 0 0 0 0 0 0 0 0 0 0 0 0 0 0 0 0 0 0 0 0 0 0 0 0 0 0 0 0 0 0 0 0 0 0 0 0 0 0 0 0 0 0 0 0 0 0 0 0 0 0
0 0 0 0 0 0 0 0 0 0 0 0 0 0 0 0 0 0 0 0 0 0 0 0 0 0 0 0 0 0 0 0 0 0 0 0 0 0 0 0 0 0 0 0 0 0 0 0 0 0 0 0 0 0 0 0 0 0 0 0 0 0 0 0 0 0 0 0 0 0 0 0 0 0 0 0 0 0 0 0 0 0 0 0 0
0 0 0 0 0 0 0 0 0 0 0 0 0 0 0 0 0 0 0 0 0 0 0 0 0 0 0 0 0 0 0 0 0 0 0 0 0 0 0 0 0 0 0 0 0 0 0 0 0 0 0 0 0 0 0 0 0 0 0 0 0 0 0 0 0 0 0 0 0 0 0 0 0 0 0 0 0 0 0 0 0 0 0 0 0
0 0 0 0 0 0 0 0 0 0 0 0 0 0 0 0 0 0 0 0 0 0 0 0 0 0 0 0 0 0 0 0 0 0 0 0 0 0 0 0 0 0 0 0 0 0 0 0 0 0 0 0 0 0 0 0 0 0 0 0 0 0 0 0 0 0 0 0 0 0 0 0 0 0 0 0 0 0 0 0 0 0 0 0 0
0 0 0 0 0 0 0 0 0 0 0 0 0 0 0 0 0 0 0 0 0 0 0 0 0 0 0 0 0 0 0 0 0 0 0 0 0 0 0 0 0 0 0 0 0 0 0 0 0 0 0 0 0 0 0 0 0 0 0 0 0 0 0 0 0 0 0 0 0 0 0 0 0 0 0 0 0 0 0 0 0 0 0 0 0
0 0 0 0 0 0 0 0 0 0 0 0 0 0 0 0 0 0 0 0 0 0 0 0 0 0 0 0 0 0 0 0 0 0 0 0 0 0 0 0 0 0 0 0 0 0 0 0 0 0 0 0 0 0 0 0 0 0 0 0 0 0 0 0 0 0 0 0 0 0 0 0 0 0 0 0 0 0 0 0 0 0 0 0 0
0 0 0 0 0 0 0 0 0 0 0 0 0 0 0 0 0 0 0 0 0 0 0 0 0 0 0 0 0 0 0 0 0 0 0 0 0 0 0 0 0 0 0 0 0 0 0 0 0 0 0 0 0 0 0 0 0 0 0 0 0 0 0 0 0 0 0 0 0 0 0 0 0 0 0 0 0 0 0 0 0 0 0 0 0
0 0 0 0 0 0 0 0 0 0 0 0 0 0 0 0 0 0 0 0 0 0 0 0 0 0 0 0 0 0 0 0 0 0 0 0 0 0 0 0 0 0 0 0 0 0 0 0 0 0 0 0 0 0 0 0 0 0 0 0 0 0 0 0 0 0 0 0 0 0 0 0 0 0 0 0 0 0 0 0 0 0 0 0 0
0 0 0 0 0 0 0 0 0 0 0 0 0 0 0 0 0 0 0 0 0 0 0 0 0 0 0 0 0 0 0 0 0 0 0 0 0 0 0 0 0 0 0 0 0 0 0 0 0 0 0 0 0 0 0 0 0 0 0 0 0 0 0 0 0 0 0 0 0 0 0 0 0 0 0 0 0 0 0 0 0 0 0 0 0
0 0 0 0 0 0 0 0 0 0 0 0 0 0 0 0 0 0 0 0 0 0 0 0 0 0 0 0 0 0 0 0 0 0 0 0 0 0 0 0 0 0 0 0 0 0 0 0 0 0 0 0 0 0 0 0 0 0 0 0 0 0 0 0 0 0 0 0 0 0 0 0 0 0 0 0 0 0 0 0 0 0 0 0 0
0 0 0 0 0 0 0 0 0 0 0 0 0 0 0 0 0 0 0 0 0 0 0 0 0 0 0 0 0 0 0 0 0 0 0 0 0 0 0 0 0 0 0 0 0 0 0 0 0 0 0 0 0 0 0 0 0 0 0 0 0 0 0 0 0 0 0 0 0 0 0 0 0 0 0 0 0 0 0 0 0 0 0 0 0
Wind_Speed
3 7 7 9 13 15 16 16 17 17 17 17 16 16 16 16 16 17 16 16 16 16 15 15 14 15 15 13 13 14 14 14 14 13 13 13 15 15 15 15 15 14 15 17 16 16 16 17 16 16 16 16 16 16 16 17 18 17 17 17 17 17 17 17 16 15 14 14 14 15 13 14 16 16 17 17 17 16 15 15 12 8 6 10 14
8 5 5 8 13 14 15 16 16 17 17 17 17 16 16 16 16 17 16 16 16 15 15 15 15 15 15 14 13 13 14 13 13 12 11 11 13 14 14 14 14 15 15 16 16 15 16 15 15 15 16 15 15 15 16 16 16 17 16 17 17 17 17 16 15 13 13 14 13 13 13 14 14 15 16 16 16 15 15 14 14 6 5 13 13
9 6 4 7 13 15 15 15 16 17 17 17 17 16 16 16 17 16 15 15 16 15 15 14 15 15 15 14 14 13 12 12 12 11 10 10 11 13 13 13 13 14 14 15 16 16 15 15 16 16 15 15 14 14 14 15 16 16 16 16 16 16 16 15 14 13 14 14 13 12 14 13 13 14 15 16 16 15 14 14 13 12 8 13 12
11 7 4 7 12 13 14 15 16 17 17 17 17 16 16 16 16 15 16 16 16 15 15 15 15 15 15 14 14 13 12 12 12 11 10 10 11 12 12 12 13 14 15 15 15 16 16 15 15 15 15 14 14 14 15 15 16 15 15 15 16 16 15 14 13 13 12 11 10 8 4 4 8 13 14 15 16 15 14 14 13 13 13 11 13
10 8 6 5 8 11 13 14 15 16 16 16 17 17 16 16 16 15 15 15 16 15 15 14 15 15 15 14 14 14 13 12 10 10 10 10 10 12 12 12 13 13 14 14 15 15 15 15 15 14 14 14 12 13 14 14 15 15 15 15 15 15 14 15 14 13 11 10 9 6 4 4 4 12 13 15 14 13 13 13 13 13 14 13 13
9 8 5 4 6 9 13 13 15 16 16 16 17 17 17 17 16 15 15 15 16 15 15 14 14 14 14 14 14 14 13 12 10 10 9 9 9 9 12 12 13 13 12 13 12 14 15 15 15 15 14 13 13 13 13 13 13 13 13 13 13 13 12 14 16 13 8 7 7 3 4 4 4 5 13 13 13 12 13 13 13 12 13 14 13
10 7 6 5 5 8 12 13 14 15 16 17 17 17 17 17 16 15 14 15 16 15 15 14 14 14 14 14 14 14 13 12 11 10 9 9 9 9 10 11 12 12 11 11 13 14 14 15 16 16 15 13 12 11 11 12 12 12 11 11 10 9 7 6 5 7 5 5 3 2 3 3 3 3 12 12 12 12 13 13 13 12 12 12 12
7 7 6 6 5 9 12 13 13 14 16 16 17 17 17 17 16 16 15 15 16 15 15 14 14 14 14 14 13 13 13 12 12 11 10 9 9 8 8 10 10 10 11 13 14 13 15 15 16 15 13 12 12 10 10 10 10 10 10 10 9 8 6 5 5 4 1 1 2 2 3 3 4 4 9 11 13 13 13 13 12 12 12 12 12
8 7 6 6 7 11 12 12 13 15 15 16 16 17 17 16 16 16 15 15 16 15 15 15 15 15 14 13 13 13 12 12 12 11 10 9 9 11 12 11 11 9 11 14 13 13 13 14 14 14 12 10 11 10 9 9 9 9 9 8 8 7 6 4 2 5 2 1 3 2 3 4 3 4 9 12 12 13 13 10 10 12 12 12 12
8 7 6 6 7 11 11 12 13 14 15 16 16 16 17 16 16 16 15 16 15 15 15 15 16 15 14 14 13 13 13 12 12 11 10 11 11 11 12 12 12 12 13 14 14 13 14 13 13 13 11 9 9 10 8 7 7 8 7 7 6 6 4 2 2 6 4 3 3 2 3 5 3 4 10 11 12 12 12 11 8 8 8 12 11
9 8 6 7 9 11 12 12 13 14 15 15 16 16 17 16 15 16 16 15 15 15 15 15 15 15 14 14 13 13 13 12 12 11 11 11 11 11 13 13 12 13 14 14 13 13 13 13 13 13 12 9 7 7 7 6 6 6 7 6 6 5 4 5 6 6 5 5 3 2 6 9 4 4 13 12 13 12 11 11 11 10 10 11 11
10 8 7 7 13 12 12 12 12 12 14 14 15 15 16 16 15 16 16 16 15 15 15 14 14 14 14 14 13 13 13 12 12 12 11 11 12 12 13 12 12 13 13 13 14 14 14 13 13 12 11 10 7 5 5 4 5 5 6 6 5 5 7 8 6 6 5 4 3 3 3 3 4 8 14 12 12 12 12 12 11 10 11 10 10
10 8 7 7 7 12 12 12 12 11 13 14 14 14 15 16 16 16 15 15 15 15 15 15 14 13 12 12 12 12 11 11 10 11 12 11 11 12 11 12 13 12 13 13 14 13 13 13 13 12 10 10 7 4 4 3 4 6 6 6 5 7 8 9 5 5 4 3 3 3 3 3 4 12 13 12 12 12 11 10 11 11 11 10 8
10 9 8 7 7 14 12 12 11 11 11 12 13 14 14 15 15 15 15 14 14 15 14 14 14 13 12 11 11 10 10 10 10 11 12 11 11 11 10 12 12 12 12 13 13 12 12 12 12 11 10 9 7 4 2 2 4 5 5 4 5 7 8 5 6 4 4 3 3 3 3 3 4 12 13 12 12 12 11 11 11 11 10 9 10
13 11 9 7 7 8 16 11 11 11 11 11 12 13 13 14 14 14 14 14 14 14 14 14 14 12 12 11 11 10 10 10 10 11 10 10 10 10 10 12 12 12 12 11 12 12 12 11 11 10 9 8 6 4 2 1 2 3 3 3 4 5 7 2 5 4 4 3 2 3 3 3 9 11 13 13 12 11 11 11 11 11 10 9 8
13 12 10 8 8 8 8 13 12 11 11 12 12 12 13 13 13 13 14 14 14 14 13 14 13 12 12 11 11 10 10 10 10 10 9 9 9 10 10 11 12 12 12 11 11 11 11 11 10 9 9 7 5 4 2 1 1 1 3 3 4 6 6 5 6 4 4 4 3 3 3 4 9 11 13 12 11 11 10 11 11 10 10 9 8
12 11 11 10 9 8 8 8 10 14 12 11 11 11 12 12 12 13 13 13 13 13 13 13 13 12 12 11 11 10 10 10 10 10 10 9 9 10 10 10 12 12 11 11 11 11 11 10 9 8 7 6 4 3 3 1 1 1 3 2 3 5 7 7 6 5 4 4 4 3 3 3 9 11 14 12 11 11 11 10 11 10 10 9 9
13 12 11 10 9 8 8 8 9 9 8 10 11 11 11 12 12 12 12 12 12 12 12 12 12 12 12 12 11 11 10 10 10 10 10 10 9 9 10 11 12 11 11 10 10 10 10 9 9 7 6 4 3 2 3 2 1 3 3 1 3 6 7 8 6 4 4 4 3 2 2 6 11 12 14 13 10 11 10 9 9 10 10 10 10
11 11 10 10 9 8 7 7 7 6 6 6 6 10 13 12 12 10 6 11 11 11 11 11 11 11 11 11 10 10 10 10 10 10 10 10 10 9 9 10 11 11 10 9 9 9 8 8 8 7 6 4 3 1 1 1 1 3 2 2 6 6 7 6 5 5 4 4 4 3 3 8 10 13 14 14 12 10 10 9 9 9 11 10 9
9 10 9 8 8 8 7 7 7 7 6 6 8 10 13 16 14 8 8 7 9 8 7 7 9 10 10 10 10 7 5 5 9 9 10 11 10 8 10 10 10 10 9 9 9 8 7 7 7 6 6 5 3 3 1 1 1 2 1 3 6 8 2 5 5 4 5 4 4 4 6 9 11 13 14 13 12 10 10 10 8 8 9 9 10
6 8 8 8 8 8 8 6 6 6 5 4 5 5 9 13 9 13 11 10 11 11 8 6 4 4 4 6 9 5 2 3 3 2 10 9 10 10 10 10 11 10 10 9 9 8 7 7 6 5 5 5 5 4 3 2 1 1 1 3 6 3 2 5 5 5 4 4 5 3 8 9 11 13 13 13 13 11 10 10 9 8 8 10 10
8 7 6 7 7 7 7 6 6 6 5 4 4 6 8 11 10 9 7 9 9 10 8 9 9 2 10 9 1 1 3 3 2 4 2 2 7 11 10 10 10 10 10 8 9 7 7 6 5 5 4 4 5 1 1 2 1 1 1 3 4 2 4 6 6 5 4 3 5 5 11 10 11 11 13 13 12 12 10 10 9 9 8 9 10
8 7 6 8 7 7 6 7 7 6 7 4 4 4 9 8 6 5 5 8 10 6 5 7 7 2 10 3 3 1 2 2 2 3 2 3 1 3 7 9 8 10 10 10 8 7 6 5 6 5 3 3 1 1 2 1 1 3 2 2 4 2 5 4 3 4 5 4 4 9 11 10 11 11 12 12 12 12 10 11 10 9 8 8 8
10 10 9 7 8 8 9 8 8 6 6 4 4 5 5 6 5 3 5 7 6 6 5 5 3 2 10 6 3 2 0 1 3 5 7 1 1 1 4 3 8 9 10 7 9 8 8 7 6 5 3 0 1 2 3 3 2 1 1 0 4 1 5 5 4 4 4 5 5 11 11 12 12 12 12 11 11 11 10 11 10 9 10 8 8
10 9 7 9 9 9 9 9 8 7 7 7 6 5 4 5 4 5 7 6 4 3 4 6 5 3 7 8 6 4 3 2 0 1 2 0 2 2 1 2 3 1 3 3 4 4 5 3 3 3 3 2 1 3 2 3 3 2 2 2 3 1 5 6 5 5 5 4 5 11 11 10 11 11 11 11 11 11 10 11 11 10 9 8 8
6 9 9 9 10 10 9 9 8 7 8 7 7 7 7 5 5 5 6 5 5 5 5 4 5 3 3 5 6 5 4 3 1 5 4 2 2 3 3 2 1 2 3 3 3 4 4 4 4 4 4 2 3 3 3 3 4 3 3 2 3 2 5 5 4 5 5 4 5 11 9 9 9 11 11 11 11 11 10 10 11 10 8 8 8
7 8 8 7 7 5 6 7 5 3 3 3 4 6 5 1 1 3 4 3 3 3 3 4 4 4 3 5 5 4 4 1 4 2 8 3 1 4 2 3 3 4 4 5 4 5 5 5 5 5 3 3 3 3 3 3 3 3 4 3 1 1 5 6 4 4 5 5 5 11 8 8 9 10 11 11 11 11 10 9 11 11 10 9 8
8 8 7 7 6 6 5 6 8 2 4 5 7 10 7 1 4 2 3 6 6 6 6 7 5 5 4 4 6 5 5 4 5 4 3 3 5 3 5 4 4 4 4 4 5 4 5 5 5 4 4 3 3 3 3 4 4 3 3 3 2 4 4 5 5 5 4 5 5 8 8 8 8 8 10 11 11 11 11 11 10 11 11 10 10
8 8 6 6 6 5 8 9 6 4 4 3 9 10 8 6 2 2 2 7 7 7 8 6 6 5 3 4 7 7 5 4 5 6 4 4 5 5 5 6 5 5 5 5 6 6 5 5 5 5 5 5 4 4 3 3 4 3 1 2 2 3 6 5 4 4 2 3 5 7 10 10 9 8 9 11 11 11 11 12 11 11 12 11 11
9 9 8 6 7 8 10 11 6 7 5 4 8 10 10 9 5 3 3 5 6 7 5 6 7 5 4 3 5 5 5 6 5 6 7 9 7 7 6 5 4 5 5 6 5 5 5 3 3 4 4 3 3 4 3 3 3 3 4 5 4 3 2 3 5 7 6 4 3 5 10 9 9 9 8 10 11 11 12 12 11 11 12 12 12
10 9 8 6 7 7 5 8 8 7 6 5 6 10 9 9 9 8 11 10 6 5 4 6 7 6 6 7 6 5 5 5 6 6 7 8 7 6 7 6 6 5 5 4 3 3 3 4 4 4 3 2 2 3 5 5 4 5 4 5 5 4 4 3 3 3 4 4 3 3 6 9 8 8 8 8 10 11 12 12 12 11 12 12 12
8 9 8 8 7 7 5 5 5 2 4 4 2 6 9 10 11 10 8 6 3 6 5 5 7 3 6 7 7 6 4 5 6 6 7 6 6 5 5 5 5 4 3 2 2 2 1 2 2 1 2 3 3 4 4 5 5 4 4 4 4 6 4 3 3 4 4 4 2 3 3 4 7 7 8 7 7 9 11 12 12 12 11 12 12
5 7 10 10 9 6 6 3 4 4 3 3 1 3 5 9 9 8 6 5 5 4 7 6 2 1 5 3 8 8 2 5 5 7 5 6 6 7 7 7 6 4 2 3 2 2 2 3 3 2 3 4 5 4 4 4 4 3 4 4 4 6 3 4 3 3 4 4 5 2 2 3 5 7 8 8 8 6 8 10 12 12 12 12 11
1 3 10 10 8 6 6 5 4 4 4 5 4 6 6 7 7 7 7 6 5 5 6 5 2 2 8 10 8 8 1 1 7 2 0 4 6 7 7 6 5 4 3 2 3 3 4 4 3 3 4 4 5 3 4 4 3 2 3 3 5 5 4 4 3 3 3 4 3 3 2 3 3 3 3 6 8 7 7 8 10 11 12 13 12
11 3 9 9 8 8 6 5 6 7 7 7 7 6 5 6 5 6 7 7 4 4 5 2 6 3 5 6 8 6 6 7 2 0 2 1 2 5 5 5 5 5 4 3 5 4 5 5 4 6 4 4 4 3 2 3 2 3 3 3 5 4 5 5 3 3 3 1 4 5 4 4 3 2 3 3 5 7 7 7 8 10 11 11 12
8 5 10 10 10 9 9 7 7 8 7 8 7 7 6 5 5 5 5 4 5 5 2 2 2 3 6 7 5 7 8 6 2 3 0 2 2 4 4 4 5 5 4 3 4 5 4 4 2 6 6 3 5 3 2 2 2 2 2 3 3 3 5 4 5 4 3 3 3 1 4 5 4 3 3 3 4 5 9 8 8 8 10 10 11
10 10 9 9 9 8 10 9 8 9 7 6 6 6 6 4 4 5 4 5 6 3 2 0 2 2 5 6 7 5 2 2 4 3 1 2 5 5 4 4 4 5 4 4 4 3 4 5 3 2 4 4 4 3 1 1 1 1 1 2 3 3 4 3 3 3 3 4 3 2 1 2 4 5 4 4 5 5 7 10 9 9 9 10 10
7 9 10 11 10 8 8 8 6 7 7 6 5 5 5 4 5 6 5 5 6 6 5 2 2 4 4 3 5 3 4 1 2 1 2 1 3 5 4 3 4 5 4 4 4 3 3 3 4 2 3 5 3 4 3 1 1 2 2 2 2 3 3 3 2 3 4 3 2 3 3 2 1 5 6 6 6 6 6 8 11 10 9 9 11
7 8 7 8 8 8 8 7 6 6 6 5 4 4 5 6 4 6 7 7 6 6 7 4 4 2 1 1 1 3 2 3 3 3 4 2 3 3 5 3 3 3 4 4 4 4 3 2 4 3 2 2 4 3 3 2 2 3 3 2 2 2 1 3 2 3 3 3 2 1 2 2 3 3 4 6 6 6 6 5 5 6 7 10 10
8 8 9 8 8 8 6 6 6 6 5 4 4 4 5 6 7 6 7 6 5 6 5 8 9 5 3 2 4 5 3 4 5 5 4 4 3 2 4 4 4 4 5 5 4 4 4 3 3 4 4 2 1 2 3 3 3 3 2 1 1 2 3 2 2 2 2 2 2 1 1 1 2 4 5 5 6 6 6 5 5 5 4 6 9
8 10 9 9 10 9 9 7 5 5 5 5 4 4 4 4 5 6 6 4 6 5 7 6 6 6 7 4 1 2 7 6 6 5 5 5 4 3 2 3 4 4 3 3 3 4 3 3 3 2 3 2 1 1 1 4 4 1 1 2 2 1 1 1 1 1 2 1 2 3 2 3 2 2 4 4 3 5 5 5 6 6 6 5 5
8 10 11 10 9 9 9 7 5 5 5 5 5 4 3 6 7 7 6 5 6 7 6 6 6 6 6 5 3 3 3 5 4 4 5 6 6 6 4 3 3 4 3 3 3 4 4 3 2 2 2 1 1 0 0 3 1 2 3 0 2 1 1 1 1 0 0 2 2 2 2 3 3 2 4 2 1 1 2 2 2 4 6 7 6
12 12 11 10 10 9 9 8 7 6 6 5 4 3 2 4 6 4 8 4 2 4 6 4 5 7 5 4 5 4 3 3 3 4 5 4 5 6 5 5 4 5 5 3 3 3 4 4 3 4 3 4 2 2 5 1 2 1 1 2 1 0 2 2 1 0 0 1 2 2 2 2 4 2 1 1 1 1 1 4 2 3 8 6 5
11 11 12 13 10 9 9 8 8 7 6 4 3 2 5 6 6 7 5 6 5 4 5 4 5 7 6 5 5 5 5 4 3 3 3 4 5 5 3 3 4 4 5 5 3 3 3 3 2 2 3 5 2 1 4 0 2 4 1 0 1 2 2 2 2 2 1 1 0 1 2 3 4 4 2 0 0 1 2 5 5 5 4 3 1
11 12 13 12 9 12 11 10 9 8 5 4 5 7 9 9 8 8 8 8 6 6 5 5 4 4 4 6 4 4 5 4 3 4 4 4 3 4 4 3 3 3 3 4 4 2 2 2 3 4 4 4 3 1 1 2 3 2 1 2 2 1 1 1 3 3 3 2 1 1 2 2 4 4 4 4 1 1 2 1 4 3 4 2 2
12 12 13 13 12 11 11 10 7 6 5 5 8 8 9 10 9 9 8 7 6 4 4 4 4 4 4 2 4 4 5 5 5 5 4 5 5 3 3 3 3 3 3 2 2 1 0 1 3 3 3 2 4 2 3 4 2 4 1 1 0 1 1 0 2 2 3 0 3 3 3 4 3 4 4 4 5 2 1 1 2 4 5 4 6
9 8 10 11 12 12 11 10 8 6 6 6 8 9 9 9 9 9 9 8 8 1 2 4 5 3 4 5 4 4 5 6 5 5 5 6 6 5 5 5 4 3 3 4 3 3 3 0 1 1 2 4 4 3 5 3 5 1 1 3 4 4 3 3 0 0 4 4 2 2 4 4 4 4 5 6 5 5 4 2 3 4 5 5 6
7 7 9 10 12 12 11 9 8 7 7 8 7 10 10 8 8 7 7 8 7 7 5 4 4 4 6 4 4 4 5 5 6 6 6 6 6 6 6 6 6 5 5 4 4 3 6 4 0 1 3 3 4 5 3 2 4 1 3 3 4 4 5 5 3 1 1 2 6 4 1 4 3 3 3 5 6 5 5 4 4 4 2 2 5
8 10 11 11 11 11 11 10 10 9 8 9 9 10 11 10 10 8 6 5 8 7 5 5 5 5 5 4 5 4 5 5 5 6 6 6 6 6 6 6 6 5 5 5 4 5 6 5 4 6 6 5 4 3 4 2 4 3 3 4 3 4 4 4 2 2 1 0 3 2 4 5 4 4 4 3 4 4 5 6 5 4 3 2 2
9 7 6 8 9 9 11 11 10 10 10 9 9 9 10 9 9 8 9 7 7 6 6 6 5 4 6 5 4 4 4 5 5 5 6 6 6 7 6 6 5 5 6 6 6 6 6 6 5 6 6 8 5 6 6 5 5 3 3 3 3 2 4 4 4 4 2 1 1 3 3 4 6 6 5 7 7 6 5 4 5 5 4 2 4
5 6 6 8 9 10 11 12 11 10 10 10 9 10 9 9 9 9 10 10 9 8 7 6 5 4 6 4 5 4 4 5 5 5 5 5 5 5 6 5 5 5 6 6 5 5 5 6 5 6 6 7 6 6 6 5 6 6 6 6 5 5 3 2 1 2 2 1 2 3 3 3 2 4 5 5 6 6 6 3 4 5 4 2 4
Wind_Direction
187 146 159 165 153 150 148 143 138 133 129 127 126 124 122 119 117 115 113 111 109 105 103 101 94 91 90 88 87 87 86 85 84 87 89 92 100 100 99 98 98 97 101 101 98 97 97 96 95 96 97 99 100 101 100 99 99 100 101 103 102 102 99 96 94 93 92 88 81 81 88 83 87 99 99 93 91 86 77 74 72 71 69 72 72
155 142 159 160 151 148 144 141 137 131 128 127 127 127 126 123 119 117 115 114 111 107 105 102 99 95 93 90 90 89 89 88 87 88 91 95 100 103 104 106 105 107 104 100 99 98 99 100 99 99 101 102 103 103 102 103 102 103 103 102 105 105 104 103 101 97 92 87 80 86 89 88 88 89 91 94 91 88 86 81 78 70 64 75 78
128 131 161 159 149 144 141 139 136 131 128 128 129 129 128 124 121 119 117 115 113 110 106 103 102 101 98 97 95 93 91 91 92 90 93 97 100 105 106 106 108 107 105 104 105 106 105 102 103 103 102 101 101 102 104 106 108 106 106 107 108 107 106 105 103 101 97 91 89 85 92 94 89 89 90 88 89 88 89 85 80 82 79 74 72
128 134 156 157 145 140 139 137 133 130 128 129 129 129 128 125 123 122 121 119 115 112 109 107 105 105 103 102 98 95 90 90 90 89 88 93 101 104 105 107 111 111 111 108 109 109 108 107 106 105 104 102 103 105 107 109 108 106 106 109 112 111 111 111 107 102 94 93 88 80 61 47 85 90 89 88 90 91 93 92 89 87 88 83 77
127 132 142 146 136 135 135 133 131 129 129 130 131 131 129 127 125 125 123 121 116 114 113 111 108 107 106 103 100 98 93 91 88 89 88 87 94 104 107 109 111 110 107 112 114 113 112 111 109 106 104 104 103 103 106 108 107 104 105 110 113 116 115 111 106 96 89 87 83 73 64 69 68 88 89 89 89 91 94 91 87 86 86 85 84
130 125 121 122 127 129 130 130 130 128 128 131 133 132 132 130 128 127 125 123 120 117 115 113 109 107 105 103 103 100 98 94 89 85 87 91 100 106 108 114 112 114 118 113 111 108 114 112 110 107 103 101 102 103 106 107 106 102 104 110 112 116 118 116 114 87 71 82 78 56 71 72 65 79 88 93 92 96 100 99 93 86 82 81 79
123 120 126 130 123 128 129 129 129 128 129 132 133 133 134 132 130 127 127 125 123 121 117 113 111 108 106 105 104 104 101 99 93 88 82 83 89 101 107 105 111 113 113 114 108 114 110 109 109 107 106 103 97 101 103 101 97 96 94 94 93 92 90 88 72 67 69 66 82 72 88 88 93 106 99 96 94 94 94 94 88 83 82 83 81
111 116 124 128 124 126 125 127 126 127 131 133 134 136 137 134 134 132 131 131 128 124 120 118 115 113 110 109 107 106 105 101 98 91 87 84 79 78 91 99 99 114 119 108 110 112 108 108 106 105 106 109 105 97 97 94 92 89 90 94 97 98 94 73 77 80 347 85 91 83 80 75 72 69 85 101 101 98 93 91 93 91 90 86 84
113 110 113 116 116 120 119 120 126 131 133 134 136 138 138 137 137 136 134 134 131 127 124 121 119 118 116 113 113 111 109 106 101 96 89 82 82 86 89 94 106 104 89 106 113 114 113 108 106 102 109 111 108 103 96 96 95 92 87 90 91 87 75 52 67 123 198 101 109 109 95 86 90 100 98 103 99 91 86 79 82 94 96 89 78
109 105 107 109 114 113 113 120 129 133 135 136 139 140 141 140 140 139 135 135 133 129 127 123 123 122 121 119 120 120 118 114 111 106 99 96 94 93 92 90 87 90 100 109 113 113 112 109 107 108 109 109 112 115 112 100 93 93 91 88 84 83 77 55 144 171 172 123 123 122 119 116 107 108 106 104 101 98 105 103 103 99 95 92 104
115 112 111 110 116 114 115 118 128 133 136 139 141 142 143 142 141 139 136 135 134 131 127 125 125 125 126 127 125 125 122 120 118 113 106 99 96 97 95 92 92 98 103 109 113 113 109 107 110 114 116 114 109 111 110 106 99 94 83 81 75 74 51 60 102 118 119 114 130 150 120 111 104 99 104 104 101 102 103 106 104 100 99 99 89
119 117 114 119 125 117 116 119 123 132 137 139 142 143 143 143 140 138 137 137 135 131 128 128 127 128 129 132 132 130 127 122 121 117 112 105 102 104 104 100 103 104 106 111 112 113 114 117 118 120 122 123 127 121 123 116 113 87 74 72 64 59 48 75 91 97 106 117 116 115 108 111 118 109 108 108 106 105 106 108 108 97 89 86 90
118 116 113 110 113 117 114 117 123 128 136 141 142 143 144 142 140 139 137 136 134 132 131 129 129 131 133 135 136 132 127 123 122 118 114 110 105 105 109 110 108 109 111 114 117 118 121 123 125 125 129 130 132 141 134 128 91 72 67 62 56 54 57 86 103 106 107 108 120 120 121 123 122 114 112 110 105 106 112 112 103 102 98 95 95
123 118 115 114 118 119 113 117 120 124 133 141 144 143 142 141 139 137 136 135 134 134 133 131 131 133 134 135 133 132 127 125 120 118 114 110 112 112 112 117 117 116 116 118 122 123 125 126 126 128 131 132 135 140 136 58 64 62 62 56 50 59 60 90 121 112 107 119 135 139 128 120 115 116 114 116 113 113 111 106 107 107 107 104 100
130 127 122 117 114 119 122 119 124 126 133 141 140 140 140 140 139 138 136 135 135 135 136 135 132 134 136 135 134 134 131 126 122 119 118 117 117 115 114 119 123 125 125 125 126 128 127 128 130 133 131 128 131 150 137 83 59 58 56 50 51 51 65 88 130 116 124 135 138 125 113 111 113 114 113 111 115 109 109 113 115 116 111 104 95
130 128 123 119 124 129 127 133 130 132 139 142 143 140 141 140 138 135 134 134 135 138 137 135 135 137 139 138 138 137 135 130 126 126 128 127 122 121 120 121 126 126 127 130 131 131 131 131 135 135 133 134 152 154 146 177 49 66 57 51 47 51 53 91 125 134 133 135 138 145 133 122 127 119 115 117 117 117 110 114 113 111 112 111 103
127 127 125 130 135 134 133 130 138 143 141 137 138 138 140 136 136 134 131 134 137 138 138 137 140 142 143 142 141 139 138 137 134 135 134 134 129 129 127 126 131 133 135 136 136 135 134 135 137 139 138 141 159 167 129 100 90 64 69 53 54 55 60 108 124 128 137 140 144 152 157 140 128 121 117 118 126 122 124 121 115 115 111 108 110
136 135 134 140 140 140 135 141 145 145 141 137 134 138 140 137 137 135 129 133 136 137 139 141 145 147 148 149 146 142 141 143 145 143 141 138 139 136 131 133 134 138 141 140 138 140 141 142 143 146 141 142 163 187 117 110 90 72 66 36 38 49 57 110 122 124 134 146 139 156 150 141 128 128 128 125 126 126 116 111 116 113 114 113 107
137 136 141 145 144 137 138 142 138 136 133 139 150 149 149 146 116 96 137 135 139 138 143 149 150 154 153 150 147 142 144 148 154 150 146 144 143 140 138 139 140 139 141 142 144 147 150 150 152 150 144 146 192 223 134 124 88 79 52 350 44 56 77 108 124 141 144 144 162 157 165 144 139 137 134 132 132 128 123 124 118 120 118 117 116
135 143 148 148 144 143 148 143 139 137 142 154 162 167 158 133 111 125 154 146 131 133 130 147 152 159 159 154 150 127 124 137 158 160 153 150 146 148 149 148 144 142 142 148 153 155 158 163 163 156 151 164 195 226 190 187 106 90 273 41 52 79 82 126 142 139 142 159 159 171 168 153 149 142 138 136 134 134 130 123 122 126 120 118 117
144 155 152 150 150 151 151 145 132 126 130 138 136 138 119 104 125 155 171 152 146 138 143 132 124 114 116 69 54 68 141 127 197 160 164 160 158 156 154 151 149 147 150 156 157 163 170 174 172 164 166 177 202 218 210 206 166 150 250 61 73 80 110 143 134 140 155 166 162 179 165 157 153 147 143 140 137 137 133 130 127 125 127 120 118
159 157 154 149 152 156 144 121 130 128 127 144 134 128 129 124 158 175 170 154 138 90 29 2 346 83 73 55 24 26 227 155 189 145 124 147 163 158 156 156 153 155 154 156 162 170 181 182 182 181 184 191 210 232 303 347 350 247 233 97 83 78 92 134 145 154 156 163 167 180 162 159 154 151 147 144 142 138 140 136 131 136 133 129 114
157 151 162 168 158 148 143 142 142 148 140 131 128 118 120 150 145 164 139 105 75 78 156 169 187 220 99 122 225 117 270 124 183 115 60 358 317 158 160 158 164 164 160 161 164 173 183 186 192 196 209 226 317 336 327 333 333 326 349 61 91 97 112 134 139 147 164 170 168 179 166 164 157 155 152 149 145 144 149 138 136 135 132 123 130
156 161 167 169 155 162 162 158 157 160 136 150 145 130 125 123 138 130 105 93 123 164 168 171 205 178 121 166 200 190 159 274 208 161 134 133 343 53 16 256 177 168 167 164 171 178 183 189 195 195 197 340 13 339 325 308 301 285 296 353 96 147 136 150 153 161 165 174 184 178 171 165 160 157 156 153 150 150 151 146 145 143 138 140 139
161 151 154 164 164 170 163 162 160 159 151 156 151 142 121 110 123 130 106 123 131 155 181 199 188 177 148 166 167 173 161 174 52 63 68 31 70 8 129 67 343 96 110 178 171 180 180 189 201 175 199 189 200 255 295 298 289 317 343 324 85 196 146 151 161 161 173 177 185 177 173 167 164 160 159 156 155 157 160 153 151 149 149 146 145
153 155 163 160 172 170 165 163 152 166 164 171 162 147 124 123 162 133 127 139 148 190 186 206 184 199 163 160 147 146 159 131 174 93 48 295 23 41 76 49 29 221 156 188 189 171 183 195 193 191 218 198 209 223 238 258 277 289 281 257 112 199 147 148 160 162 166 171 187 176 174 168 165 167 162 161 160 160 162 163 154 153 147 150 151
169 167 154 159 166 149 149 143 134 90 96 139 134 106 82 82 59 110 123 132 166 213 200 216 205 166 178 160 151 128 109 132 95 88 139 148 231 128 154 163 183 216 194 163 200 189 186 192 195 202 204 200 227 236 233 245 246 252 269 293 79 140 139 150 155 155 159 172 185 175 175 171 173 173 166 165 165 166 165 167 162 160 161 156 164
163 160 154 153 164 140 121 88 65 38 153 177 122 71 78 65 254 207 127 167 165 194 205 208 205 182 179 155 140 147 156 155 136 185 140 142 152 160 151 199 169 219 221 190 191 198 197 199 199 198 195 209 217 243 234 223 217 221 245 254 185 149 143 145 149 154 163 171 180 174 172 168 165 169 174 175 172 169 168 171 169 165 167 166 172
152 149 144 139 144 108 84 105 131 174 205 144 112 125 142 163 188 188 201 186 178 185 194 196 205 190 159 150 163 158 167 174 159 161 148 153 166 161 175 207 172 208 217 203 189 193 200 199 202 207 202 202 204 233 223 176 184 185 196 86 82 137 137 133 132 117 152 197 179 177 168 163 164 172 179 182 180 172 170 172 175 174 174 173 171
147 142 147 143 128 124 136 147 149 172 192 148 139 135 143 153 178 173 297 243 195 205 182 192 208 172 142 171 183 170 162 174 182 157 158 183 181 170 172 194 197 212 218 196 194 182 199 218 226 221 212 199 187 183 131 116 105 119 91 87 75 69 73 131 151 160 172 195 211 188 175 174 176 177 182 187 185 178 178 173 177 179 181 180 177
141 142 139 125 125 148 131 135 169 171 173 171 138 136 150 158 162 173 206 222 188 187 187 212 213 152 146 172 173 183 174 176 192 179 186 186 154 176 166 178 196 210 221 201 176 183 201 222 239 230 217 135 140 101 98 96 81 67 75 80 91 75 84 112 151 158 159 180 215 206 185 182 184 186 190 195 190 183 181 178 177 181 183 186 187
134 145 134 131 137 146 165 157 162 161 133 139 110 109 144 158 168 186 192 206 193 170 184 214 237 131 155 175 176 183 175 196 199 186 193 178 148 154 124 159 180 180 192 170 167 139 150 260 249 197 117 126 93 79 90 98 87 85 87 88 84 83 76 87 121 156 173 173 202 241 197 185 194 197 200 205 205 195 189 181 182 183 184 189 191
150 141 124 133 143 146 162 184 151 179 141 109 75 83 134 139 152 166 168 179 196 202 175 194 228 137 115 92 45 351 264 186 210 211 182 160 145 146 150 169 168 157 153 146 126 104 107 91 35 63 91 90 85 73 74 81 94 87 93 93 92 89 85 83 97 131 165 177 187 235 270 204 200 202 208 210 216 215 196 188 187 186 186 188 191
346 126 126 136 143 145 162 166 170 147 131 130 145 129 139 145 153 153 163 175 195 201 225 126 146 74 97 108 139 171 289 295 209 199 90 171 152 146 151 136 119 100 98 121 107 120 124 122 126 97 66 85 88 86 93 84 80 88 76 93 91 96 103 80 63 82 138 167 172 184 226 271 234 214 226 232 221 222 211 196 194 194 192 193 191
310 169 137 141 141 141 137 137 148 133 127 116 116 120 136 145 145 141 160 173 173 205 242 119 107 121 109 123 141 139 109 268 270 113 57 42 120 117 115 117 112 112 119 138 125 124 136 138 140 108 96 82 89 58 61 91 106 107 110 102 93 94 83 82 55 46 38 49 185 190 191 213 238 242 227 239 245 239 236 214 205 197 202 204 197
214 185 134 135 132 131 130 128 125 117 120 128 131 138 147 158 151 160 148 132 152 180 257 26 95 133 130 117 114 136 169 184 83 335 83 133 156 106 103 113 108 111 121 109 114 128 131 115 99 131 120 97 100 76 30 60 51 44 2 54 84 89 86 83 80 62 40 27 10 306 203 202 206 213 232 231 236 240 241 233 222 207 199 206 207
183 132 132 117 116 121 119 120 125 126 130 130 131 135 141 139 136 137 127 120 130 118 108 252 46 43 52 98 143 165 104 129 171 188 285 183 120 110 117 119 122 125 123 119 109 120 133 119 80 49 118 137 119 124 81 63 87 67 33 38 50 60 73 80 86 94 91 48 13 18 22 218 216 219 219 219 230 236 237 236 230 224 207 200 209
139 133 132 131 133 131 128 127 134 132 134 137 133 130 136 129 107 117 123 103 102 104 87 56 27 12 28 114 128 104 127 287 296 29 4 276 126 131 132 130 128 126 122 117 117 113 89 116 114 68 110 123 136 138 124 74 80 88 58 49 35 45 55 65 61 66 77 83 65 15 340 335 260 222 221 217 217 219 227 232 230 231 225 211 208
135 132 126 122 123 123 122 128 130 127 126 125 117 117 94 66 77 97 84 76 62 80 119 101 43 29 331 51 63 94 131 207 229 207 205 187 142 134 131 147 117 116 115 117 117 107 105 88 126 106 76 114 146 147 132 126 101 86 59 24 39 78 50 38 61 71 52 64 73 54 324 308 303 275 239 227 218 214 219 221 222 226 230 224 215
143 135 130 128 125 123 120 124 132 129 129 116 117 117 90 98 96 85 75 69 74 88 92 116 130 164 180 217 186 157 154 215 204 206 174 171 154 128 134 141 138 137 132 128 137 128 124 111 115 121 116 96 85 115 118 112 71 83 111 69 55 98 80 58 53 57 69 55 28 10 346 286 273 275 276 246 221 214 211 204 206 222 243 238 230
142 140 137 138 137 138 131 141 150 139 137 145 140 142 118 104 88 103 112 105 96 80 70 73 94 122 138 172 182 139 138 157 188 183 157 151 130 115 141 142 120 113 116 132 143 122 121 131 137 102 122 108 30 44 158 125 128 69 28 67 23 21 79 82 85 82 104 102 68 14 333 335 321 311 291 280 228 218 211 213 205 204 212 215 225
160 149 148 150 144 141 143 153 154 149 157 168 174 154 157 147 135 137 127 122 113 96 89 82 86 73 87 104 111 95 116 141 143 142 142 137 143 158 162 139 100 101 106 109 112 113 115 112 114 68 31 90 80 78 355 86 337 189 130 14 346 308 179 95 192 246 120 85 57 27 343 332 319 340 321 327 19 116 177 159 314 262 219 203 210
167 161 155 145 146 147 149 157 164 160 177 182 165 165 117 117 121 144 131 95 57 113 114 117 96 88 74 82 92 94 88 84 116 130 133 141 141 148 159 148 137 138 124 122 120 124 134 134 133 134 104 30 2 60 314 46 152 88 229 91 319 26 323 355 347 350 55 23 17 7 343 319 310 306 297 303 27 334 6 96 189 251 255 240 220
169 161 155 154 154 154 154 160 169 169 178 195 147 94 104 102 103 116 92 101 127 100 87 72 78 74 65 74 65 85 86 87 108 115 125 151 157 158 144 137 151 154 146 152 165 165 151 138 127 131 119 137 241 191 210 246 202 123 339 255 237 126 356 324 319 298 73 181 121 341 318 311 307 313 324 52 235 232 173 158 209 231 263 253 13
176 167 161 159 163 160 160 163 168 174 176 157 127 120 107 95 96 87 93 84 61 66 69 51 59 94 83 65 75 87 92 87 67 63 89 120 138 140 144 142 143 132 136 151 178 184 189 173 150 148 159 151 178 110 67 251 242 71 149 87 12 24 231 284 23 300 344 25 358 360 288 283 294 305 316 315 293 259 292 144 219 219 240 264 183
177 171 164 163 157 161 159 161 162 160 154 153 143 134 129 127 120 114 110 104 103 100 112 122 93 90 113 120 62 68 70 70 71 79 81 94 93 101 103 119 132 134 136 125 101 82 75 218 194 178 180 143 130 121 145 209 170 48 342 138 170 174 161 271 79 314 329 155 292 302 268 266 274 284 291 294 304 292 190 202 196 238 244 235 222
176 160 160 160 159 158 161 162 156 153 154 154 152 133 129 131 133 136 138 140 135 160 130 123 121 117 99 86 77 55 68 74 57 66 70 74 82 84 94 95 99 109 127 129 151 176 190 190 87 177 182 137 155 139 172 142 91 37 325 46 32 30 93 99 151 171 351 321 338 310 311 333 327 322 314 308 313 319 315 303 266 211 201 204 254
157 159 161 161 161 161 160 158 146 150 161 156 157 141 137 136 132 134 140 138 142 148 150 147 135 131 100 93 81 69 66 75 74 64 70 79 89 84 81 79 83 83 92 98 107 108 92 89 63 69 88 99 135 135 136 134 121 57 356 60 33 350 40 56 88 139 166 321 320 326 329 323 316 283 286 298 300 291 290 281 261 267 251 169 198
162 172 171 167 165 161 159 156 151 152 162 164 155 147 142 146 143 140 135 145 136 143 144 135 125 118 110 95 92 84 72 64 73 77 70 79 80 86 79 75 76 77 84 84 77 76 83 93 84 71 79 67 74 105 102 78 99 140 115 69 79 50 45 54 58 67 108 53 299 341 323 323 352 331 323 296 281 274 273 275 275 273 283 266 201
173 168 162 160 162 160 161 159 157 159 163 168 156 151 144 140 139 146 140 140 132 133 130 135 134 131 121 119 115 100 90 75 71 77 76 77 89 89 89 86 85 82 79 81 80 73 72 72 74 87 89 83 65 79 97 103 98 95 101 131 100 48 34 24 24 33 32 56 232 303 312 342 347 304 311 336 328 320 303 294 296 296 298 296 278
151 162 166 169 166 166 165 167 168 162 161 164 157 153 148 148 146 146 139 146 147 141 133 134 135 128 134 136 122 123 110 108 92 83 96 97 90 91 95 94 88 87 82 76 77 87 81 83 79 79 79 95 96 94 86 81 87 80 74 87 98 102 128 107 31 42 101 45 21 336 309 317 261 310 307 325 325 328 338 329 316 314 322 297 285